Regional Weather Roundup
Issued by NWS

Home | Current Version | Previous Version | Graphics & Text | Print | Product List | Glossary On
Versions: 1 2 3 4 5 6 7 8 9 10 11 12 13 14 15 16 17 18 19 20 21 22 23 24 25 26 27 28 29 30 31 32 33 34 35 36 37 38 39 40 41 42 43 44 45 46 47 48 49 50
000
ASUS43 KMKX 231210
RWRWI

WISCONSIN REGIONAL WEATHER ROUNDUP
NATIONAL WEATHER SERVICE MILWAUKEE/SULLIVAN WI
700 AM CDT MON APR 23 2018

NOTE: "FAIR" INDICATES FEW OR NO CLOUDS BELOW 12,000 FEET WITH NO
SIGNIFICANT WEATHER AND/OR OBSTRUCTIONS TO VISIBILITY.

WIZ001-002-006>008-014>016-023>028-231300-
NORTHWEST WISCONSIN

CITY           SKY/WX    TMP DP  RH WIND       PRES   REMARKS
SUPERIOR ARPT  FAIR      30  27  86 CALM      30.24S
6HR MIN TEMP:  27; 6HR MAX TEMP:  32;

ASHLAND        FAIR      39  23  52 SW3       30.25S
6HR MIN TEMP:  33; 6HR MAX TEMP:  40;

HAYWARD        FAIR      29  25  85 CALM      30.26S
6HR MIN TEMP:  27; 6HR MAX TEMP:  31;

SIREN          FAIR      32  28  86 CALM      30.26
6HR MIN TEMP:  30; 6HR MAX TEMP:  38;

CUMBERLAND     FAIR      32  25  74 CALM      30.26S
RICE LAKE      FAIR      32  29  90 CALM      30.29R
6HR MIN TEMP:  30; 6HR MAX TEMP:  36;

CHETEK         FAIR      31  26  83 CALM      30.27S
6HR MIN TEMP:  28; 6HR MAX TEMP:  36;

LADYSMITH      FAIR      33  26  77 CALM      30.30R
6HR MIN TEMP:  31; 6HR MAX TEMP:  39;

EAU CLAIRE     FAIR      32  25  75 NE3       30.27S
6HR MIN TEMP:  31; 6HR MAX TEMP:  42;

MENOMONIE      FAIR      33  30  88 CALM      30.27S
6HR MIN TEMP:  33; 6HR MAX TEMP:  45;

NEW RICHMOND   CLOUDY    36  30  79 CALM      30.26R
6HR MIN TEMP:  33; 6HR MAX TEMP:  36;

OSCEOLA        FAIR      32  31  93 CALM      30.29S
6HR MIN TEMP:  32; 6HR MAX TEMP:  36;

$$

WIZ003>005-009-010-017-018-231300-
NORTH CENTRAL WISCONSIN

CITY           SKY/WX    TMP DP  RH WIND       PRES   REMARKS
MANITOWISH WTR FAIR      27  26  96 CALM      30.27S
6HR MIN TEMP:  24; 6HR MAX TEMP:  32;

ARBOR VITAE    FAIR      32  24  72 CALM      30.28S
6HR MIN TEMP:  29; 6HR MAX TEMP:  38;

WOODRUFF       FAIR      32  24  72 CALM      30.28S
6HR MIN TEMP:  29; 6HR MAX TEMP:  38;

RHINELANDER    FAIR      30  23  75 CALM      30.29R
6HR MIN TEMP:  27; 6HR MAX TEMP:  36;

EAGLE RIVER    FAIR      27  21  80 CALM      30.28S
6HR MIN TEMP:  25; 6HR MAX TEMP:  33;

LAND O LAKES   FAIR      27  22  81 CALM      30.30R
6HR MIN TEMP:  24; 6HR MAX TEMP:  30;

PHILLIPS       FAIR      29  26  91 CALM      30.27S
6HR MIN TEMP:  27; 6HR MAX TEMP:  33;

TOMAHAWK       FAIR      26  21  83 CALM      30.29S
6HR MIN TEMP:  24; 6HR MAX TEMP:  29;

MEDFORD        FAIR      32  26  80 CALM      30.28R
6HR MIN TEMP:  29; 6HR MAX TEMP:  37;

MERRILL          N/A     28  24  83 CALM      30.30S
6HR MIN TEMP:  25; 6HR MAX TEMP:  29;

$$

WIZ029-030-035-036-043>047-231300-
CENTRAL WISCONSIN

CITY           SKY/WX    TMP DP  RH WIND       PRES   REMARKS
WAUSAU         FAIR      32  28  85 CALM      30.28R
6HR MIN TEMP:  30; 6HR MAX TEMP:  35;

MOSINEE        PTCLDY    37  27  65 CALM      30.30R
MARSHFIELD     FAIR      35  26  69 NE3       30.28R
6HR MIN TEMP:  33; 6HR MAX TEMP:  43;

STEVENS POINT  FAIR      28  24  88 CALM      30.30R
6HR MIN TEMP:  25; 6HR MAX TEMP:  29;

WAUPACA        FAIR      31  28  88 CALM      30.30R
6HR MIN TEMP:  29; 6HR MAX TEMP:  34;

WAUTOMA        FAIR      31  28  89 CALM      30.30R
6HR MIN TEMP:  26; 6HR MAX TEMP:  32;

WISC RAPIDS    FAIR      32  25  75 N3        30.30R
6HR MIN TEMP:  30; 6HR MAX TEMP:  38;

CAMP DOUGLAS   PTCLDY    27  27 100 CALM      30.28R
$$

WIZ011>013-019>022-031-037>040-048>050-231300-
NORTHEAST WISCONSIN

CITY           SKY/WX    TMP DP  RH WIND       PRES   REMARKS
ANTIGO         FAIR      32  29  87 CALM      30.29S
6HR MIN TEMP:  29; 6HR MAX TEMP:  36;

SHAWANO        FAIR      31  28  88 CALM      30.31R
6HR MIN TEMP:  29; 6HR MAX TEMP:  33;

OCONTO         FAIR      28  26  93 CALM      30.31R
6HR MIN TEMP:  27; 6HR MAX TEMP:  31;

STURGEON BAY   FAIR      40  25  55 CALM      30.32R
6HR MIN TEMP:  35; 6HR MAX TEMP:  45;

GREEN BAY      FAIR      35  29  78 CALM      30.30R
6HR MIN TEMP:  31; 6HR MAX TEMP:  39;

MANITOWOC      FAIR      35  29  78 CALM      30.32R
6HR MIN TEMP:  31; 6HR MAX TEMP:  36;

APPLETON       MOSUNNY   37  18  44 NE5       30.27S WCI  34
CLINTONVILLE   FAIR      28  24  84 CALM      30.30S
6HR MIN TEMP:  28; 6HR MAX TEMP:  33;

OSHKOSH        FAIR      38  28  67 CALM      30.29R
6HR MIN TEMP:  34; 6HR MAX TEMP:  41;

$$

WIZ032>034-041-042-053>061-231300-
SOUTHWEST WISCONSIN

CITY           SKY/WX    TMP DP  RH WIND       PRES   REMARKS
LA CROSSE      FAIR      40  32  73 CALM      30.28R
6HR MIN TEMP:  36; 6HR MAX TEMP:  45;

SPARTA         FAIR      28  26  91 CALM      30.30R
6HR MIN TEMP:  26; 6HR MAX TEMP:  31;

VIROQUA        FAIR      41  29  63 E5        30.26R
6HR MIN TEMP:  38; 6HR MAX TEMP:  43;

BOSCOBEL       FAIR      36  33  89 CALM      30.28R FOG
6HR MIN TEMP:  31; 6HR MAX TEMP:  38;

PRAIRIE DU CHI FAIR      40  33  76 CALM      30.27R
6HR MIN TEMP:  37; 6HR MAX TEMP:  45;

PLATTEVILLE    FAIR      42  28  58 NE8       30.25R
6HR MIN TEMP:  40; 6HR MAX TEMP:  45;

$$

WIZ056-057-062-063-064-067-068-231300-
SOUTH CENTRAL WISCONSIN

CITY           SKY/WX    TMP DP  RH WIND       PRES   REMARKS
REEDSBURG      FAIR      32  32  99 CALM      30.28R
6HR MIN TEMP:  32; 6HR MAX TEMP:  39;

BARABOO/DELLS  FAIR      31  28  86 CALM      30.28R
6HR MIN TEMP:  29; 6HR MAX TEMP:  37;

LONE ROCK      FAIR      30  29  96 CALM      30.28R
6HR MIN TEMP:  30; 6HR MAX TEMP:  38;

MINERAL POINT  FAIR      45  27  49 E8        30.25R
MADISON        MOCLDY    35  28  75 N5        30.27R WCI  31
6HR MIN TEMP:  32; 6HR MAX TEMP:  44;

MIDDLETON      FAIR      36  32  86 CALM      30.27R
6HR MIN TEMP:  33; 6HR MAX TEMP:  38;

WATERTOWN      FAIR      35  27  71 CALM      30.27R
6HR MIN TEMP:  32; 6HR MAX TEMP:  40;

MONROE         FAIR      39  27  60 NE7       30.24R WCI  34
JANESVILLE     MOCLDY    39  28  65 NE6       30.25R WCI  35
$$

WIZ051-052-058>065-066-070>072-231300-
SOUTHEAST WISCONSIN

CITY           SKY/WX    TMP DP  RH WIND       PRES   REMARKS
MILWAUKEE      PTSUNNY   41  32  70 CALM      30.28R
6HR MIN TEMP:  38; 6HR MAX TEMP:  42;

WAUKESHA       SUNNY     36  25  64 CALM      30.28S
MILWAUKEE/TIMM FAIR      36  27  69 NE3       30.29S
RACINE         FAIR      42  34  73 N9        30.27F
6HR MIN TEMP:  35; 6HR MAX TEMP:  42;

BURLINGTON     FAIR      34  27  77 CALM      30.26S
6HR MIN TEMP:  31; 6HR MAX TEMP:  40;

KENOSHA        FAIR      41  31  67 NE7       30.25S
6HR MIN TEMP:  36; 6HR MAX TEMP:  41;

FOND DU LAC    FAIR      34  28  79 CALM      30.29R
6HR MIN TEMP:  32; 6HR MAX TEMP:  40;

SHEBOYGAN      FAIR      32  30  92 CALM      30.30R
6HR MIN TEMP:  30; 6HR MAX TEMP:  37;

WEST BEND      FAIR      32  28  86 CALM      30.29R
JUNEAU         FAIR      38  24  56 CALM      30.29R
6HR MIN TEMP:  36; 6HR MAX TEMP:  41;

$$

LSZ147-162-231300-
LAKE SUPERIOR

STATION/POSITION TIME  TEMP    WIND        PRES    WAVE
                       AIR SEA DIR/SP/G            HT/PER
                 (UTC) (F)     (DEG/KT/KT) (MB)    (FT/S)
DEVILS ISLAND    1100   42     230/  7/  8 1024.5R
SAXON HARBOR     1130   45     190/  6/  9 1023.4S
$$

LMZ867-665-643>646-231300-
LAKE MICHIGAN

STATION/POSITION TIME  TEMP    WIND        PRES    WAVE
                       AIR SEA DIR/SP/G            HT/PER




USA.gov is the U.S. government's official web portal to all federal, state and local government web resources and services.